• In Lithuania
  • List of Countries
  • For 7 days
  • Water Temperature
  • Satellite Maps
  • Weather Map
  • Weather Widgets
  • user-avatar
    Login

    Hourly Weather Primorsko

    Today, 17 December, Sunday

    Time Temperature Precipitation Wind Pressure Humidity
    00:00 +14°C° 0.6 mm 6 mps 757 mmHg 82%
    01:00 +14°C° 0.6 mm 5 mps 756 mmHg 82%
    02:00 +14°C° 0 mm 4 mps 756 mmHg 86%
    03:00 +14°C° 1 mm 5 mps 756 mmHg 86%
    04:00 +14°C° 1 mm 5 mps 756 mmHg 87%
    05:00 +14°C° 1 mm 6 mps 756 mmHg 87%
    06:00 +13°C° 2 mm 6 mps 755 mmHg 88%
    07:00 +13°C° 2 mm 6 mps 755 mmHg 89%
    08:00 +11°C° 0 mm 6 mps 755 mmHg 88%
    09:00 +11°C° 2.6 mm 6 mps 755 mmHg 90%
    10:00 +12°C° 2.6 mm 5 mps 755 mmHg 91%
    11:00 +11°C° 2.6 mm 4 mps 755 mmHg 93%
    12:00 +10°C° 3.6 mm 5 mps 755 mmHg 93%
    13:00 +10°C° 3.6 mm 5 mps 755 mmHg 93%
    14:00 +10°C° 0 mm 5 mps 754 mmHg 94%
    15:00 +9°C° 3.1 mm 6 mps 754 mmHg 94%
    16:00 +8°C° 3.1 mm 6 mps 755 mmHg 93%
    17:00 +8°C° 3.1 mm 7 mps 755 mmHg 92%
    18:00 +6°C° 0.7 mm 7 mps 755 mmHg 92%
    19:00 +7°C° 0.7 mm 6 mps 756 mmHg 91%
    20:00 +7°C° 0.7 mm 6 mps 756 mmHg 91%
    21:00 +5°C° 0.2 mm 6 mps 757 mmHg 89%
    22:00 +5°C° 0.2 mm 6 mps 758 mmHg 88%
    23:00 +5°C° 0.2 mm 6 mps 758 mmHg 87%

    Tomorrow, 18 December, Monday

    Time Temperature Precipitation Wind Pressure Humidity
    00:00 +4°C° 0 mm 6 mps 759 mmHg 86%
    01:00 +4°C° 0 mm 6 mps 760 mmHg 86%
    02:00 +3°C° 0 mm 6 mps 760 mmHg 86%
    03:00 +3°C° 0 mm 6 mps 761 mmHg 86%
    04:00 +2°C° 0 mm 5 mps 761 mmHg 87%
    05:00 +2°C° 0 mm 5 mps 762 mmHg 88%
    06:00 +2°C° 0 mm 5 mps 762 mmHg 88%
    07:00 +1°C° 0 mm 5 mps 762 mmHg 88%
    08:00 +1°C° 0 mm 4 mps 763 mmHg 88%
    09:00 +3°C° 0 mm 4 mps 763 mmHg 84%
    10:00 +4°C° 0 mm 4 mps 763 mmHg 80%
    11:00 +5°C° 0 mm 4 mps 764 mmHg 76%
    12:00 +5°C° 0 mm 4 mps 763 mmHg 75%
    13:00 +5°C° 0 mm 4 mps 763 mmHg 74%
    14:00 +6°C° 0 mm 4 mps 763 mmHg 73%
    15:00 +5°C° 0 mm 4 mps 763 mmHg 76%
    16:00 +5°C° 0 mm 4 mps 763 mmHg 78%
    17:00 +4°C° 0 mm 4 mps 763 mmHg 80%
    18:00 +3°C° 0.3 mm 5 mps 763 mmHg 81%
    19:00 +3°C° 0.3 mm 5 mps 763 mmHg 83%
    20:00 +3°C° 0.3 mm 6 mps 763 mmHg 84%
    21:00 +3°C° 0.8 mm 6 mps 763 mmHg 85%
    22:00 +3°C° 0.8 mm 6 mps 763 mmHg 86%
    23:00 +3°C° 0.8 mm 7 mps 763 mmHg 86%

    Day after tomorrow, 19 December, Tuesday

    Time Temperature Precipitation Wind Pressure Humidity
    00:00 +3°C° 1 mm 7 mps 763 mmHg 87%
    01:00 +2°C° 1 mm 7 mps 763 mmHg 87%
    02:00 +1°C° 1 mm 8 mps 764 mmHg 87%
    03:00 +1°C° 0.7 mm 8 mps 764 mmHg 88%
    04:00 +1°C° 0.7 mm 8 mps 764 mmHg 89%
    05:00 +1°C° 0.7 mm 8 mps 764 mmHg 90%
    06:00 +1°C° 0.8 mm 9 mps 764 mmHg 91%
    07:00 0°C° 0.8 mm 9 mps 765 mmHg 92%
    08:00 0°C° 0.8 mm 9 mps 765 mmHg 93%
    09:00 0°C° 0.7 mm 9 mps 766 mmHg 93%
    10:00 0°C° 0.7 mm 9 mps 766 mmHg 93%
    11:00 0°C° 0.7 mm 9 mps 766 mmHg 93%
    12:00 0°C° 0.9 mm 9 mps 766 mmHg 93%
    13:00 0°C° 0.9 mm 8 mps 766 mmHg 93%
    14:00 -1°C° 0.9 mm 8 mps 766 mmHg 92%
    15:00 -1°C° 0.6 mm 8 mps 767 mmHg 92%
    16:00 -1°C° 0.6 mm 8 mps 767 mmHg 91%
    17:00 -1°C° 0.6 mm 8 mps 768 mmHg 91%
    18:00 -2°C° 0.2 mm 8 mps 768 mmHg 91%
    19:00 -2°C° 0.2 mm 8 mps 768 mmHg 91%
    20:00 -2°C° 0.2 mm 8 mps 769 mmHg 92%
    21:00 -2°C° 0.2 mm 7 mps 769 mmHg 92%
    22:00 -2°C° 0.2 mm 7 mps 769 mmHg 92%
    23:00 -2°C° 0.2 mm 7 mps 769 mmHg 93%

    20 December, Wednesday

    Time Temperature Precipitation Wind Pressure Humidity
    00:00 -2°C° 0.1 mm 7 mps 770 mmHg 93%
    01:00 -3°C° 0.1 mm 6 mps 770 mmHg 93%
    02:00 -3°C° 0.1 mm 6 mps 770 mmHg 93%
    03:00 -3°C° 0 mm 6 mps 770 mmHg 93%
    04:00 -3°C° 0 mm 6 mps 770 mmHg 92%
    05:00 -3°C° 0 mm 6 mps 770 mmHg 92%
    06:00 -4°C° 0 mm 5 mps 770 mmHg 92%
    07:00 -4°C° 0 mm 5 mps 770 mmHg 92%
    08:00 -5°C° 0 mm 5 mps 771 mmHg 92%
    09:00 -4°C° 0 mm 5 mps 771 mmHg 89%
    10:00 -2°C° 0 mm 5 mps 771 mmHg 86%
    11:00 -1°C° 0 mm 5 mps 771 mmHg 83%
    12:00 0°C° 0 mm 5 mps 771 mmHg 83%
    13:00 0°C° 0 mm 5 mps 771 mmHg 83%
    14:00 0°C° 0 mm 5 mps 771 mmHg 83%
    15:00 -1°C° 0 mm 5 mps 771 mmHg 85%
    16:00 -2°C° 0 mm 4 mps 771 mmHg 87%
    17:00 -3°C° 0 mm 4 mps 771 mmHg 89%
    18:00 -3°C° 0 mm 4 mps 772 mmHg 90%
    19:00 -4°C° 0 mm 3 mps 772 mmHg 90%
    20:00 -4°C° 0 mm 3 mps 772 mmHg 91%
    21:00 -4°C° 0 mm 3 mps 773 mmHg 90%
    22:00 -4°C° 0 mm 3 mps 773 mmHg 89%
    23:00 -4°C° 0 mm 3 mps 773 mmHg 88%

    21 December, Thursday

    Time Temperature Precipitation Wind Pressure Humidity
    00:00 -4°C° 0 mm 3 mps 773 mmHg 87%
    01:00 -5°C° 0 mm 3 mps 773 mmHg 86%
    02:00 -5°C° 0 mm 3 mps 773 mmHg 85%
    03:00 -5°C° 0 mm 3 mps 773 mmHg 84%
    04:00 -5°C° 0 mm 3 mps 772 mmHg 83%
    05:00 -5°C° 0 mm 3 mps 772 mmHg 82%
    06:00 -5°C° 0 mm 3 mps 772 mmHg 82%
    07:00 -4°C° 0 mm 2 mps 773 mmHg 81%
    08:00 -4°C° 0 mm 2 mps 773 mmHg 81%
    09:00 -2°C° 0 mm 2 mps 773 mmHg 79%
    10:00 -1°C° 0 mm 2 mps 772 mmHg 77%
    11:00 +2°C° 0 mm 2 mps 772 mmHg 74%
    12:00 +2°C° 0 mm 2 mps 772 mmHg 75%
    13:00 +2°C° 0 mm 2 mps 771 mmHg 75%
    14:00 +3°C° 0 mm 2 mps 770 mmHg 76%
    15:00 +1°C° 0 mm 2 mps 770 mmHg 79%
    16:00 -1°C° 0 mm 2 mps 770 mmHg 82%
    17:00 -3°C° 0 mm 2 mps 770 mmHg 86%
    18:00 -4°C° 0 mm 3 mps 770 mmHg 85%
    19:00 -4°C° 0 mm 3 mps 770 mmHg 84%
    20:00 -5°C° 0 mm 3 mps 770 mmHg 82%
    21:00 -5°C° 0 mm 3 mps 770 mmHg 81%
    22:00 -5°C° 0 mm 3 mps 770 mmHg 79%
    23:00 -5°C° 0 mm 3 mps 770 mmHg 78%

    22 December, Friday

    Time Temperature Precipitation Wind Pressure Humidity
    00:00 -5°C° 0 mm 3 mps 770 mmHg 77%
    01:00 -5°C° 0 mm 3 mps 769 mmHg 76%
    02:00 -5°C° 0 mm 3 mps 769 mmHg 75%
    03:00 -5°C° 0 mm 3 mps 769 mmHg 75%
    04:00 -5°C° 0 mm 3 mps 768 mmHg 75%
    05:00 -5°C° 0 mm 3 mps 768 mmHg 74%
    06:00 -5°C° 0 mm 3 mps 768 mmHg 74%
    07:00 -5°C° 0 mm 3 mps 768 mmHg 74%
    08:00 -5°C° 0 mm 3 mps 768 mmHg 73%
    09:00 -3°C° 0 mm 4 mps 768 mmHg 72%
    10:00 -2°C° 0 mm 4 mps 767 mmHg 71%
    11:00 0°C° 0 mm 4 mps 767 mmHg 70%
    12:00 +1°C° 0 mm 4 mps 767 mmHg 71%
    13:00 +1°C° 0 mm 4 mps 766 mmHg 73%
    14:00 +2°C° 0 mm 5 mps 765 mmHg 74%
    15:00 +1°C° 0 mm 5 mps 765 mmHg 77%
    16:00 0°C° 0 mm 5 mps 765 mmHg 79%
    17:00 -1°C° 0 mm 4 mps 765 mmHg 82%
    18:00 -1°C° 0 mm 5 mps 765 mmHg 83%
    19:00 -1°C° 0 mm 5 mps 764 mmHg 84%
    20:00 -1°C° 0 mm 5 mps 764 mmHg 84%
    21:00 -2°C° 0 mm 5 mps 764 mmHg 85%
    22:00 -2°C° 0 mm 5 mps 764 mmHg 86%
    23:00 -2°C° 0 mm 5 mps 763 mmHg 88%
    Show more